(349) Dembowska
ephemeris date magn radius delta ra dec elong phase
Today31 Aug 202511.93.061 AU3.172 AU15h12m-23°02'74.5°18.5°
Opposition12 Aug 20269.92.769 AU1.771 AU21h45m-26°36'167.6°4.5°
(349) Dembowska - 2025-08-31
astro.vanbuitenen.nl


 
-1 year
-1 month
-1 day
Now
+1 day
+1 month
+1 year

The interactive orbit chart above shows the body's path through the solar system and its position at the given date. Green and blue lines are shown perpendicular to the ecliptic plane: Green if the path is above the ecliptic plane, blue if it is below. (Left-click and drag to rotate the view; Right-click and drag to move the view; Use scroll wheel to zoom in our out.)

The orbital elements of Dembowska are:

            e (Eccentricity)                : 0.0887058
            a (Semimajor axis)              : 2.9251394
            i (Inclination)                 : 8.24906
            Ω (Longitude of ascending node) : 32.19631
            ω (Argument of perihelion)      : 344.51796
            M (Mean anomaly)                : 219.46952
            Epoch                           : 2025 May 05

            L (Longitude of perihelion)     : 16.86688
            B (Latitude of perihelion)      : -2.19491
            P (Orbital period in years)     : 5.00            
        

The light curve chart below shows the estimated development of the minor planet's magnitude.


The all-sky chart below shows the path of the minor planet over the same period as the light curve. The current position is marked yellow.





The following chart shows the path of the minor planet in the next few days. The field of view is optimized for (~10x50) binoculars and finderscopes. A more printer-friendly version of the same chart can be found below.




Ephemerides:
Date       Time       RA (2000)    DEC (2000)    delta   radius  elong  phase   PA    magn
2025-08-31 00:00 UT   15 12 39.0   -23 02 59     3.172    3.061   74.5   18.5   107   11.9 
2025-08-31 23:24 UT   15 13 39.5   -23 06 43     3.184    3.060   73.8   18.5   107   11.9 
2025-09-01 00:00 UT   15 13 41.0   -23 06 49     3.184    3.060   73.8   18.5   107   11.9 
2025-09-02 00:00 UT   15 14 43.8   -23 10 41     3.197    3.060   73.1   18.4   107   11.9 
2025-09-03 00:00 UT   15 15 47.4   -23 14 35     3.209    3.059   72.4   18.3   107   11.9 
2025-09-04 00:00 UT   15 16 51.7   -23 18 30     3.222    3.058   71.7   18.2   107   12.0 
2025-09-05 00:00 UT   15 17 56.8   -23 22 26     3.234    3.057   71.0   18.2   107   12.0 
2025-09-06 00:00 UT   15 19 02.6   -23 26 24     3.246    3.057   70.3   18.1   107   12.0 
2025-09-07 00:00 UT   15 20 09.1   -23 30 23     3.259    3.056   69.6   18.0   107   12.0 
2025-09-08 00:00 UT   15 21 16.3   -23 34 24     3.271    3.055   68.9   17.9   107   12.0 
2025-09-09 00:00 UT   15 22 24.3   -23 38 25     3.283    3.055   68.2   17.8   107   12.0 
2025-09-10 00:00 UT   15 23 33.0   -23 42 28     3.295    3.054   67.5   17.7   107   12.0 
2025-09-11 00:00 UT   15 24 42.3   -23 46 31     3.307    3.053   66.8   17.6   107   12.0 
2025-09-12 00:00 UT   15 25 52.4   -23 50 35     3.319    3.052   66.1   17.5   107   12.0 
2025-09-13 00:00 UT   15 27 03.1   -23 54 40     3.330    3.052   65.4   17.4   107   12.0 
2025-09-14 00:00 UT   15 28 14.6   -23 58 46     3.342    3.051   64.7   17.3   107   12.0 
2025-09-15 00:00 UT   15 29 26.7   -24 02 53     3.354    3.050   64.0   17.2   107   12.0 
2025-09-16 00:00 UT   15 30 39.4   -24 07 00     3.365    3.049   63.3   17.1   107   12.0 
2025-09-17 00:00 UT   15 31 52.9   -24 11 08     3.377    3.049   62.6   17.0   106   12.0 
2025-09-18 00:00 UT   15 33 07.0   -24 15 16     3.388    3.048   62.0   16.9   106   12.0 
2025-09-19 00:00 UT   15 34 21.7   -24 19 24     3.400    3.047   61.3   16.8   106   12.0 
2025-09-20 00:00 UT   15 35 37.1   -24 23 33     3.411    3.046   60.6   16.7   106   12.0 
2025-09-21 00:00 UT   15 36 53.1   -24 27 42     3.422    3.046   59.9   16.6   106   12.0 
2025-09-22 00:00 UT   15 38 09.8   -24 31 52     3.433    3.045   59.2   16.5   106   12.0 
2025-09-23 00:00 UT   15 39 27.0   -24 36 01     3.444    3.044   58.6   16.3   106   12.0 
2025-09-24 00:00 UT   15 40 44.9   -24 40 10     3.455    3.043   57.9   16.2   106   12.0 
2025-09-25 00:00 UT   15 42 03.4   -24 44 20     3.466    3.043   57.2   16.1   106   12.0 
2025-09-26 00:00 UT   15 43 22.5   -24 48 29     3.477    3.042   56.6   16.0   106   12.0 
2025-09-27 00:00 UT   15 44 42.2   -24 52 38     3.488    3.041   55.9   15.8   106   12.0 
2025-09-28 00:00 UT   15 46 02.5   -24 56 46     3.498    3.040   55.2   15.7   106   12.0 
2025-09-29 00:00 UT   15 47 23.3   -25 00 55     3.509    3.039   54.6   15.6   106   12.0 
2025-09-30 00:00 UT   15 48 44.8   -25 05 03     3.519    3.039   53.9   15.4   106   12.0 


    Terminology:
            
    delta:  distance between minor planet and earth in AU
    radius: distance between minor planet and sun in AU
    magn:   magnitude (brightness) estimate    
    ra:     right ascension in hours (24h = 360deg)
    dec:    declination in degrees
    elong:  elongation in degrees (angle sun-earth-minor planet)    
    phase:  phase angle in degrees (angle sun-minor planet-earth)        
    AU:     Astronomical Unit (mean distance between earth and sun: 149597870.7 km
    

Orbital elements provided by the MPC (Minor Planet Center).
Calculations by a modified version of AAPlus, a C# implementation of the AA+ project by PJ Naughter from the algorithms presented in the book "Astronomical Algorithms" by Jean Meeus.
NGC2000 dso catalog and star labels from VizieR as provided by the Strasbourg astronomical Data Center.
Tycho2 catalog from the ESO archive.